Location: Newark
(15.4608°S, 41.1635°W)
Time: 23:29:48
(UTC+00:00)

Explorer 11/Cluster Stage 4 - Pass Details

Date: 10 August 2021
Orbit: 467 x 1256 km, 28.8° (Epoch: 24 September)

Event Time Altitude Azimuth Distance (km) Brightness Sun altitude
Rises 20:48:47 0° 252° (WSW) 3,594 11.1 -3.8°
Reaches altitude 10° 20:52:23 10° 235° (SW) 2,480 9.8 -4.6°
Maximum altitude 20:56:31 20° 190° (S) 1,713 8.3 -5.6°
Drops below altitude 10° 21:00:06 10° 144° (SE) 2,099 8.3 -6.4°
Enters shadow 21:01:33 - 132° (SE) 2,480 8.6 -6.7°
